CAPE
4 2 2 1 1 1 0 0 1 1 0 1 0 0 0 0 0 0 0 0 0 0 0 0 0 0 0 0 0 0 0 0 0 0 0 0 0 0 0 0 0 0 0 0 0 0 0
1 2 0 1 2 2 0 0 0 0 0 0 0 0 0 0 0 0 0 0 0 0 0 0 0 0 0 0 0 0 0 0 0 0 0 0 0 0 0 0 0 0 0 0 0 0 0
1 1 1 1 1 1 1 0 0 0 0 0 0 0 0 0 0 0 0 0 0 0 0 0 0 0 0 0 0 0 0 0 0 0 0 0 0 0 0 0 0 0 0 0 0 0 0
2 0 1 1 1 1 0 0 0 0 0 0 0 0 0 0 0 0 0 0 0 0 0 0 0 0 0 0 0 0 0 0 0 0 0 0 0 0 0 0 0 0 0 0 0 0 0
1 1 2 1 2 1 1 0 0 0 0 0 0 0 0 0 0 0 0 0 0 0 0 0 0 0 0 0 0 0 0 0 0 0 0 0 0 0 0 0 0 0 0 0 0 0 0
1 1 1 0 0 2 1 0 0 0 0 0 0 0 0 0 0 0 0 0 0 0 0 0 0 0 0 0 0 0 0 0 0 0 0 0 0 0 0 0 0 0 0 0 0 0 0
1 0 0 0 0 1 0 0 0 0 0 0 0 0 0 0 0 0 0 0 0 0 0 0 0 0 0 0 0 0 0 0 0 0 0 0 0 0 0 0 0 0 0 0 0 0 0
0 0 0 0 1 1 0 0 0 0 0 0 0 0 0 0 0 0 0 0 0 0 0 0 0 0 0 0 0 0 0 0 0 0 0 0 0 0 0 0 0 0 0 0 0 0 0
1 1 1 1 3 1 0 0 0 0 0 0 0 0 0 0 0 0 0 0 0 0 0 0 0 0 0 0 0 0 0 0 0 0 0 0 0 0 0 0 0 0 0 0 0 0 0
0 2 1 2 1 1 1 0 0 0 0 0 0 0 0 0 0 0 0 0 0 0 0 0 0 0 0 0 0 0 0 0 0 0 0 0 0 0 0 0 0 0 0 0 0 0 0
2 0 5 3 1 1 0 0 0 0 0 0 0 0 0 0 0 0 0 0 0 0 0 0 0 0 0 0 0 0 0 0 0 0 0 0 0 0 0 0 0 0 0 0 0 0 0
4 9 6 2 2 2 1 1 1 0 0 0 0 0 0 0 0 0 0 0 0 0 0 0 0 0 0 0 0 0 0 0 0 0 0 0 0 0 0 0 0 0 0 0 0 0 0
7 8 5 1 2 2 1 1 1 0 0 0 0 0 0 0 0 0 0 0 0 0 0 0 0 0 0 0 0 0 0 0 0 0 0 0 0 0 0 0 0 0 0 0 0 0 0
4 1 1 0 2 1 1 0 0 0 0 0 0 0 0 0 0 0 0 0 0 0 0 0 0 0 0 0 0 0 0 0 0 0 0 0 0 0 0 0 0 0 0 0 0 0 0
3 3 2 1 1 2 1 0 0 0 0 0 0 0 0 0 0 0 0 0 0 0 0 0 0 0 0 0 0 0 0 0 0 0 0 0 0 0 0 0 0 0 0 0 0 0 0
3 4 4 2 2 2 1 0 0 0 0 0 0 0 0 0 0 0 0 0 0 0 0 0 0 0 0 0 0 0 0 0 0 0 0 0 0 0 0 0 0 0 0 0 0 0 0
6 4 4 3 2 0 0 0 0 0 0 0 0 0 0 0 0 0 0 0 0 0 0 0 0 0 0 0 0 0 0 0 0 0 0 0 0 0 0 0 0 0 0 0 0 0 0
5 4 4 6 1 0 0 0 0 0 0 0 0 0 0 0 0 0 0 0 0 0 0 0 0 0 0 0 0 0 0 0 0 0 0 0 0 0 0 0 0 0 0 0 0 0 0
3 6 5 3 2 2 1 0 0 0 0 0 0 0 0 0 0 0 0 0 0 0 0 0 0 0 0 0 0 0 0 0 0 0 0 0 0 0 0 0 0 0 0 0 0 0 0
2 5 3 2 1 3 2 1 0 0 0 0 0 0 0 0 0 0 1 0 8 0 0 0 0 0 0 0 0 0 0 0 0 0 0 0 0 0 0 0 0 0 0 0 0 0 0
3 4 3 1 2 0 2 2 0 0 0 0 12 15 1 3 0 1 1 9 6 5 4 3 0 1 3 0 0 0 0 0 0 0 0 0 0 0 0 0 0 0 0 0 0 0 0
5 4 5 2 2 5 1 1 1 0 0 0 0 0 0 0 0 0 0 0 0 0 0 1 1 1 1 2 2 0 0 2 2 2 0 0 0 1 0 0 0 0 0 0 0 0 0
4 4 4 4 3 1 1 1 1 3 0 0 0 0 0 0 0 0 0 0 0 0 0 0 0 0 0 0 0 0 0 0 1 1 2 0 0 0 0 0 0 0 0 0 0 0 0
5 5 6 7 5 1 3 1 5 10 17 0 1 2 0 0 0 0 0 0 0 0 0 0 0 0 0 0 0 0 0 0 0 0 0 1 2 0 0 7 3 0 0 0 0 2 0
9 9 8 7 5 5 1 11 2 8 15 2 1 1 0 0 0 0 0 0 0 0 0 0 0 0 0 0 0 0 0 0 0 2 1 2 2 6 3 9 0 0 0 0 0 0 0
0 2 0 3 4 4 6 6 17 7 10 9 3 3 4 1 0 0 0 0 0 0 0 0 0 0 0 0 0 0 0 0 0 0 0 0 0 0 0 0 0 0 0 0 0 0 0
35 26 24 11 1 3 5 8 5 5 30 22 0 4 6 3 0 0 0 1 4 1 0 0 0 0 0 0 0 0 0 0 0 0 0 0 0 0 0 0 0 0 0 0 0 0 0
14 2 3 10 30 8 7 9 4 2 4 8 9 0 1 0 0 0 0 0 0 1 0 0 0 0 0 0 0 0 0 0 0 0 0 0 0 0 0 0 0 0 0 0 0 0 0
11 9 5 6 8 17 24 5 7 13 6 8 13 4 3 0 0 0 0 0 0 0 0 0 0 0 0 0 0 0 0 0 0 0 0 0 0 0 0 0 0 0 0 0 0 0 0
CIN
0 0 -1 0 0 0 0 0 0 0 0 0 0 0 0 0 0 0 0 0 0 0 0 0 0 0 0 0 0 0 0 0 0 0 0 0 0 0 0 0 0 0 0 0 0 0 0
0 0 0 0 0 0 0 0 0 0 0 0 0 0 0 0 0 0 0 0 0 0 0 0 0 0 0 0 0 0 0 0 0 0 0 0 0 0 0 0 0 0 0 0 0 0 0
0 0 -1 -1 0 0 0 0 0 0 0 0 0 0 0 0 0 0 0 0 0 0 0 0 0 0 0 0 0 0 0 0 0 0 0 0 0 0 0 0 0 0 0 0 0 0 0
0 -1 0 -1 0 0 0 0 0 0 0 0 0 0 0 0 0 0 0 0 0 0 0 0 0 0 0 0 0 0 0 0 0 0 0 0 0 0 0 0 0 0 0 0 0 0 0
0 0 0 0 0 0 0 0 0 0 0 0 0 0 0 0 0 0 0 0 0 0 0 0 0 0 0 0 0 0 0 0 0 0 0 0 0 0 0 0 0 0 0 0 0 0 0
0 0 0 0 0 0 0 0 0 0 0 0 0 0 0 0 0 0 0 0 0 0 0 0 0 0 0 0 0 0 0 0 0 0 0 0 0 0 0 0 0 0 0 0 0 0 0
0 0 0 0 0 0 0 0 0 0 0 0 0 0 0 0 0 0 0 0 0 0 0 0 0 0 0 0 0 0 0 0 0 0 0 0 0 0 0 0 0 0 0 0 0 0 0
0 0 0 0 -1 0 0 0 0 0 0 0 0 0 0 0 0 0 0 0 0 0 0 0 0 0 0 0 0 0 0 0 0 0 0 0 0 0 0 0 0 0 0 0 0 0 0
-1 0 0 0 0 0 0 0 0 0 0 0 0 0 0 0 0 0 0 0 0 0 0 0 0 0 0 0 0 0 0 0 0 0 0 0 0 0 0 0 0 0 0 0 0 0 0
0 0 0 0 0 0 0 0 0 0 0 0 0 0 0 0 0 0 0 0 0 0 0 0 0 0 0 0 0 0 0 0 0 0 0 0 0 0 0 0 0 0 0 0 0 0 0
-1 -1 -2 -2 0 0 0 0 0 0 0 0 0 0 0 0 0 0 0 0 0 0 0 0 0 0 0 0 0 0 0 0 0 0 0 0 0 0 0 0 0 0 0 0 0 0 0
-2 -6 -6 -6 0 0 0 0 0 0 0 0 0 0 0 0 0 0 0 0 0 0 0 0 0 0 0 0 0 0 0 0 0 0 0 0 0 0 0 0 0 0 0 0 0 0 0
-14 -15 -15 -16 0 0 0 0 0 0 0 0 0 0 0 0 0 0 0 0 0 0 0 0 0 0 0 0 0 0 0 0 0 0 0 0 0 0 0 0 0 0 0 0 0 0 0
-31 -3 -2 0 0 0 0 0 0 0 0 0 0 0 0 0 0 0 0 0 0 0 0 0 0 0 0 0 0 0 0 0 0 0 0 0 0 0 0 0 0 0 0 0 0 0 0
0 0 0 0 0 0 0 0 0 0 0 0 0 0 0 0 0 0 0 0 0 0 0 0 0 0 0 0 0 0 0 0 0 0 0 0 0 0 0 0 0 0 0 0 0 0 0
0 0 0 0 0 0 0 0 0 0 0 0 0 0 0 0 0 0 0 0 0 0 0 0 0 0 0 0 0 0 0 0 0 0 0 0 0 0 0 0 0 0 0 0 0 0 0
0 0 0 0 0 0 0 0 0 0 0 0 0 0 0 0 0 0 0 0 0 0 0 0 0 0 0 0 0 0 0 0 0 0 0 0 0 0 0 0 0 0 0 0 0 0 0
0 0 0 0 -1 0 0 0 0 0 0 0 0 0 0 0 0 0 0 0 0 0 0 0 0 0 0 0 0 0 0 0 0 0 0 0 0 0 0 0 0 0 0 0 0 0 0
0 0 0 0 0 0 0 0 0 0 0 0 0 0 0 0 0 0 0 0 0 0 0 0 0 0 0 0 0 0 0 0 0 0 0 0 0 0 0 0 0 0 0 0 0 0 0
0 0 0 -1 -1 0 0 0 0 0 0 0 0 0 0 0 0 -2 -4 0 -5 -5 0 0 0 0 0 0 0 0 0 0 0 0 0 0 0 0 0 0 0 0 0 0 0 0 0
0 0 0 -1 0 0 0 0 -1 0 0 0 -2 0 0 -2 0 0 0 0 0 -1 -3 -1 -11 0 0 0 0 0 0 0 0 0 0 0 0 0 0 0 0 0 0 0 0 0 0
0 -1 -1 -1 -1 0 -1 0 0 0 0 0 0 0 0 0 0 0 0 0 0 0 0 0 0 0 0 0 0 0 0 0 0 0 0 0 0 0 0 0 0 0 0 0 0 0 0
0 0 -1 0 0 -1 0 -1 -1 0 0 0 0 0 0 0 0 0 0 0 0 0 0 0 0 0 0 0 0 0 0 0 0 0 0 0 0 0 0 0 0 0 0 0 0 0 0
0 -1 -1 0 -1 -1 -1 -1 -1 -1 -2 -1 -4 -1 0 0 0 0 0 0 0 0 0 0 0 0 0 0 0 0 0 0 0 0 0 0 0 0 0 -2 -4 0 0 0 0 0 0
-1 0 0 -1 0 0 -1 0 -1 -1 -2 -1 -7 -2 0 0 0 0 0 0 0 0 0 0 0 0 0 0 0 0 0 0 0 -25 0 0 0 -1 -3 -4 0 0 0 0 0 0 0
0 0 0 0 0 -1 0 0 0 0 -1 -4 -3 -2 -2 -1 0 0 0 0 0 0 0 0 0 0 0 0 0 0 0 0 0 -1 0 0 0 0 0 0 0 0 0 0 0 0 0
0 0 0 -1 -3 -1 0 0 -1 -2 0 -1 0 -11 -4 -1 0 0 0 0 -1 -1 0 0 0 0 0 0 0 0 0 0 0 0 0 0 0 0 0 0 0 0 0 0 0 0 0
-1 0 0 0 0 -4 -6 -3 -4 -2 -3 -1 0 0 0 0 0 0 0 0 0 -1 0 0 0 0 0 0 0 0 0 0 0 0 -3 0 0 0 0 0 0 0 0 0 0 0 0
0 0 -1 -1 0 -5 0 -2 -6 -1 0 -3 0 -20 -12 -1 0 0 0 0 0 0 0 0 0 0 0 0 0 0 0 0 0 0 0 0 0 0 0 0 0 0 0 0 0 0 0
Wind_Speed
15 15 15 16 16 18 18 18 18 17 16 15 15 15 16 17 18 19 19 19 19 19 19 19 18 18 18 17 20 13 15 14 12 12 11 10 10 11 12 12 12 9 11 10 11 12 12
17 17 18 18 18 19 20 20 20 20 19 19 18 18 18 19 19 20 20 20 20 20 20 21 21 20 16 19 14 15 15 13 13 12 12 10 11 10 14 12 12 12 12 11 12 11 13
19 20 20 20 20 21 21 22 22 22 22 21 21 20 20 20 21 21 22 21 21 21 21 21 20 20 16 5 14 15 15 13 14 12 12 12 12 11 13 15 14 15 18 16 11 12 14
21 21 22 22 22 22 22 23 23 23 23 23 23 22 21 21 21 21 22 22 23 23 23 21 20 20 19 18 15 14 14 14 14 14 13 12 13 13 15 14 18 18 18 17 14 12 16
23 23 23 23 24 24 24 24 24 25 25 25 24 24 23 22 21 21 23 23 23 23 20 20 21 21 20 16 14 12 13 14 13 13 14 13 14 14 15 17 20 19 18 17 21 13 16
24 24 25 25 25 25 26 26 26 26 26 26 26 26 25 23 21 23 22 20 18 18 18 17 19 22 19 17 14 13 14 13 14 13 15 15 16 17 17 15 22 20 20 20 19 18 17
25 25 26 26 26 27 27 27 28 28 28 28 28 28 27 25 23 23 20 19 20 21 19 18 19 19 18 16 14 16 14 14 15 16 18 17 18 17 15 13 19 20 21 22 21 21 25
25 26 26 27 28 28 29 29 29 30 30 30 30 30 30 27 24 22 20 20 20 21 29 23 23 24 21 18 22 17 13 16 16 19 16 20 21 19 18 17 18 20 23 25 26 22 24
27 27 27 28 29 29 30 30 31 32 32 32 33 33 32 30 24 21 21 21 20 21 28 26 20 21 20 15 21 18 11 16 18 19 17 20 21 17 18 19 21 23 23 26 28 29 27
27 28 28 29 29 30 31 32 32 33 34 34 34 34 33 31 20 23 22 21 21 21 29 26 20 18 16 15 21 15 12 15 17 20 18 22 19 20 21 23 20 27 22 24 28 30 33
28 28 28 30 31 31 32 33 34 35 35 36 36 35 33 27 24 23 22 21 21 21 32 19 18 15 15 15 17 16 14 16 20 19 19 24 21 21 23 23 17 26 22 24 26 29 34
28 27 29 31 32 33 34 35 36 37 37 38 38 37 34 25 24 21 22 21 20 25 29 22 19 20 20 19 20 17 16 16 19 23 24 26 22 22 23 21 18 18 24 27 29 29 38
26 28 30 32 34 35 36 37 38 39 40 41 40 39 31 25 25 23 22 21 29 27 24 25 23 21 22 22 22 19 21 21 24 31 32 29 26 23 20 23 22 21 26 35 37 35 37
28 30 31 33 34 36 38 39 40 41 42 43 42 37 28 24 23 23 22 24 33 28 27 24 25 25 28 23 26 24 28 32 26 27 32 36 38 21 19 22 25 21 23 30 41 40 41
29 30 32 34 36 37 39 40 42 43 44 44 42 32 27 25 23 22 23 31 32 28 27 28 29 34 34 28 28 28 29 32 28 19 29 32 36 25 22 21 21 26 28 26 36 36 45
30 31 33 34 36 38 40 41 42 44 45 44 38 33 27 24 23 22 27 34 30 26 28 29 35 30 36 32 32 30 32 27 30 23 24 30 42 28 25 24 25 25 22 32 30 44 49
31 32 34 36 37 39 40 42 43 44 45 41 32 33 24 24 22 27 35 35 34 31 29 32 35 37 37 37 35 36 36 33 29 27 24 27 33 38 29 30 31 30 32 30 32 35 47
32 33 34 36 37 39 40 42 43 43 44 34 32 36 24 27 34 30 33 31 30 32 30 34 34 37 40 39 43 41 41 34 25 26 32 27 34 46 44 35 31 31 34 32 40 44 41
32 33 35 36 38 39 41 42 43 44 42 34 36 34 26 23 34 34 33 35 35 38 36 32 33 33 34 39 43 38 38 33 28 29 32 29 37 49 47 39 33 36 35 34 35 38 46
32 33 35 37 38 39 41 42 44 45 43 28 31 37 32 28 28 34 36 38 35 29 34 31 36 39 40 43 37 41 40 34 29 31 32 30 39 43 51 45 32 36 35 35 37 47 49
33 34 36 37 39 40 41 42 44 45 42 29 29 31 31 36 37 41 40 40 45 43 36 36 33 33 38 41 40 41 42 41 37 35 34 31 45 43 48 48 46 50 51 48 47 48 50
35 36 37 38 40 41 41 42 43 44 41 29 31 32 32 39 41 44 40 40 44 41 41 41 41 47 44 43 45 48 45 43 44 38 43 39 49 48 55 55 54 57 51 50 49 50 50
36 37 38 39 40 41 41 41 41 41 36 31 31 29 30 34 35 37 36 36 40 41 36 36 43 46 45 44 45 49 46 45 44 48 49 42 45 49 59 52 51 55 51 49 50 48 48
37 38 38 38 38 38 39 39 39 38 35 31 30 31 33 36 35 36 39 38 37 39 40 41 39 40 38 46 50 47 45 48 44 46 41 51 50 47 56 53 61 47 39 38 41 41 45
37 36 36 35 35 35 34 34 35 36 35 31 29 30 33 37 36 39 35 38 41 36 38 38 32 40 43 44 45 50 51 48 42 35 36 40 48 52 54 52 51 46 42 41 43 40 41
37 35 36 36 35 34 34 33 33 33 32 30 28 26 29 37 33 34 39 34 38 41 37 33 37 36 31 33 36 43 46 43 43 43 35 40 34 38 43 53 52 38 39 38 31 38 41
40 37 34 30 32 34 33 31 29 30 30 29 27 24 27 34 30 27 37 37 31 33 39 38 33 32 28 32 36 37 40 37 40 43 45 46 44 45 42 38 32 39 42 35 32 35 37
42 41 39 40 32 28 30 31 29 28 29 29 28 24 26 30 32 25 28 29 28 30 34 31 33 25 30 33 33 34 35 34 37 38 37 40 45 45 45 49 48 44 34 35 36 32 33
41 42 40 38 35 36 28 27 27 27 27 23 26 23 22 26 31 31 27 23 23 20 24 21 24 28 24 28 28 29 36 32 35 39 31 36 33 36 33 32 30 32 31 32 33 32 32
Wind_Direction
332 334 335 336 338 341 341 341 340 334 325 313 299 287 273 264 260 258 256 251 252 254 252 251 264 272 288 308 280 345 334 345 20 32 38 39 30 21 12 22 20 24 23 24 13 1 348
327 329 332 333 335 336 338 338 339 337 333 325 315 302 287 277 269 264 259 255 260 261 260 266 274 281 328 300 326 330 333 357 360 15 16 23 21 28 1 4 10 13 8 6 358 357 344
323 327 329 330 331 332 334 334 335 335 333 329 324 313 299 286 277 269 263 263 266 269 272 280 287 291 328 156 325 329 335 347 349 1 3 9 13 10 8 353 356 356 346 348 352 348 344
322 325 328 327 328 329 327 329 331 332 330 328 325 319 308 295 285 280 279 276 273 279 283 290 301 301 317 308 319 333 340 343 345 351 359 9 5 358 349 356 346 344 344 342 354 352 343
325 325 326 325 327 326 326 327 328 328 328 325 324 321 314 303 294 291 286 283 285 292 304 308 305 304 316 324 323 333 339 342 344 347 349 355 351 345 345 338 333 339 336 337 333 344 339
327 327 326 326 325 324 326 326 326 325 323 322 322 320 317 310 303 304 304 312 320 321 320 321 312 304 303 319 327 333 334 340 336 341 337 336 336 329 331 332 324 330 330 330 328 335 330
328 328 328 327 327 326 326 325 326 325 322 320 319 318 315 312 304 315 324 324 315 309 310 308 310 309 314 320 329 320 330 330 329 325 317 326 319 314 323 322 324 325 324 322 325 327 322
332 329 329 329 329 328 327 326 325 325 323 321 319 317 314 311 309 325 332 325 325 319 299 304 299 298 307 315 307 314 327 316 316 310 317 315 308 316 322 322 321 321 319 318 321 326 323
334 330 328 329 328 328 328 327 326 326 323 321 318 318 316 313 321 335 331 331 338 335 306 306 311 306 308 314 306 308 320 317 312 309 308 306 316 331 321 319 316 315 314 316 317 320 321
331 333 330 330 329 329 329 327 325 324 321 319 318 318 318 314 336 332 328 338 339 339 306 306 312 318 321 321 310 321 323 320 316 311 312 310 317 313 312 311 313 310 318 316 316 318 315
331 330 336 334 330 329 327 325 323 320 319 317 317 317 317 332 330 328 330 336 339 335 298 318 320 339 331 318 326 321 325 317 308 311 313 310 313 312 309 311 313 312 321 318 317 315 313
333 337 335 334 331 330 327 325 322 318 317 315 313 314 317 331 331 333 333 336 333 308 298 311 321 316 313 310 312 321 319 321 321 310 307 305 314 311 311 315 312 319 317 317 316 313 306
337 336 335 333 330 328 327 326 323 320 317 315 312 311 322 327 323 327 330 327 304 295 313 307 313 314 309 307 306 307 306 305 305 305 305 309 305 308 308 307 310 307 310 307 307 306 305
338 336 333 333 330 328 327 325 323 321 318 315 312 317 325 325 326 326 321 311 292 300 302 314 313 310 302 308 304 304 302 299 301 303 303 301 300 304 306 301 305 300 301 300 302 303 306
341 338 336 334 331 329 328 326 325 322 318 316 315 325 324 325 325 324 311 294 295 300 307 307 307 300 299 303 301 304 301 300 303 295 296 301 300 310 308 309 306 306 296 305 299 304 302
342 340 339 336 333 331 329 327 325 324 320 317 318 318 319 325 326 319 302 293 298 305 307 305 298 301 297 301 300 301 301 305 306 300 300 302 298 303 304 306 305 300 306 302 302 300 298
343 342 339 337 335 332 330 328 327 325 322 320 322 313 320 323 324 309 295 295 298 302 303 300 297 295 296 297 296 295 296 301 302 304 300 300 295 298 301 295 292 296 294 297 300 295 295
339 340 342 341 338 335 333 332 329 328 325 328 321 306 319 320 303 302 297 300 305 302 305 300 299 296 294 295 294 292 291 290 301 300 297 296 297 291 292 299 296 291 289 287 289 295 293
346 343 344 343 340 339 338 337 333 330 327 321 313 310 320 320 299 299 301 300 301 300 299 299 298 301 302 298 296 294 294 297 293 291 295 297 293 293 296 298 297 292 290 289 293 294 285
347 344 346 345 343 340 339 338 336 333 330 328 317 304 310 313 309 303 302 301 301 307 304 303 300 301 297 293 292 294 295 300 297 292 295 294 286 284 285 293 302 295 295 292 289 289 292
351 349 348 347 345 344 343 342 341 338 334 338 324 314 313 302 300 302 303 301 298 298 303 306 301 304 303 297 296 293 295 297 294 297 296 294 286 288 288 289 292 291 291 289 285 285 286
352 350 348 347 346 344 343 342 341 340 337 341 330 321 317 307 305 301 301 297 298 299 303 298 295 299 299 295 296 295 299 300 295 297 291 289 288 290 288 289 290 289 286 286 284 286 287
356 355 353 352 351 349 348 346 345 345 347 334 331 327 319 314 314 310 307 306 301 303 300 301 300 299 297 297 297 295 294 294 292 292 294 292 291 291 287 292 293 288 286 287 287 287 292
1 2 3 3 3 1 357 353 350 348 349 344 333 324 318 311 312 310 309 308 308 306 300 304 304 301 302 305 300 296 292 291 290 289 287 289 289 292 290 292 285 295 307 302 297 303 305
10 11 11 10 9 8 8 5 359 352 348 345 342 329 317 310 310 309 311 310 309 308 308 307 311 312 311 308 302 298 295 292 292 296 301 302 290 286 284 286 291 298 310 308 304 300 317
11 12 11 10 9 7 5 6 2 356 351 346 342 341 326 313 312 315 310 312 308 308 310 310 317 322 321 316 312 303 300 302 297 295 299 303 308 303 301 296 293 311 317 318 310 297 322
5 8 7 5 6 6 5 3 3 357 351 346 339 343 330 314 319 317 312 311 315 312 307 313 321 323 329 317 313 310 307 315 304 303 303 298 297 298 298 296 297 319 316 317 310 309 324
2 2 2 2 2 1 3 5 2 359 351 347 340 337 330 319 320 325 320 317 317 315 311 319 323 326 322 318 316 316 312 317 312 313 310 306 302 298 295 291 288 318 313 312 311 323 323
3 1 360 360 358 359 357 358 2 360 354 351 344 347 341 324 318 319 314 314 316 318 319 328 324 324 328 324 325 325 317 319 319 312 328 308 313 308 309 305 313 320 317 320 321 323 324